Dewpoint
61 60 60 60 59 60 60 59 59 59 60 60 60 60 60 60 60 60 60 60 60 60 60 61 61 61 62 63 63 64 64 64 65 64 63 63 62 62 62 62 63 63 63 62 62 61 61 60 59 59 58 57 57 56 56 55 56 56 55 55 54 54 54 54 54 55 55 55 54
60 60 60 59 58 59 60 60 59 59 60 60 60 60 60 60 60 60 60 60 60 60 60 61 61 61 62 62 62 63 64 64 64 64 64 63 63 63 63 62 63 63 63 63 62 61 61 60 60 59 58 58 57 56 56 55 55 55 56 56 54 53 53 53 54 54 55 56 55
61 61 61 60 60 60 60 60 60 60 60 60 60 60 60 60 60 60 60 60 61 61 61 61 62 62 62 62 63 63 63 64 64 64 64 64 64 63 63 63 63 63 63 63 63 62 61 61 60 59 58 58 57 56 56 56 55 55 55 55 55 55 54 53 54 55 55 56 55
62 61 61 60 60 60 60 60 60 60 60 60 61 61 61 60 60 60 60 61 61 61 61 62 64 64 63 63 63 63 63 63 63 64 64 64 64 63 63 63 62 62 63 63 63 63 62 61 60 59 59 58 58 57 56 55 56 55 55 55 56 57 56 53 53 54 55 55 55
61 61 60 60 60 60 60 60 60 60 61 61 61 61 61 62 62 62 62 62 61 61 62 63 65 65 65 63 63 63 63 63 62 63 64 64 64 64 64 64 63 62 62 63 63 63 63 62 60 60 59 59 58 57 56 56 56 56 55 55 57 58 56 53 53 53 54 54 56
61 60 60 60 61 61 61 61 61 61 62 62 61 61 61 61 61 61 62 62 62 62 63 64 65 65 64 63 63 63 63 64 64 64 64 65 65 64 64 64 64 63 63 63 63 63 63 62 60 60 60 59 60 60 59 58 58 57 56 55 56 56 56 54 53 53 54 54 56
61 60 60 60 60 61 61 62 62 62 62 62 62 61 61 62 62 62 63 63 63 63 64 64 65 65 64 64 64 63 64 64 64 64 64 64 64 64 64 64 64 64 63 63 62 62 62 62 60 60 59 58 58 59 60 59 58 57 56 56 55 56 56 57 56 56 56 56 56
61 61 61 61 61 61 61 63 63 62 62 62 62 62 62 62 63 63 63 63 64 64 65 65 65 65 64 64 64 64 64 64 64 64 64 64 64 64 64 64 64 64 63 63 62 62 61 61 60 60 60 59 58 58 59 59 59 58 57 56 55 56 58 58 56 56 57 56 56
61 61 61 61 62 62 62 63 63 62 62 62 63 63 63 63 64 64 63 63 63 64 64 64 64 64 64 64 64 64 64 64 64 64 64 64 64 64 64 64 64 63 63 63 63 62 62 61 61 60 60 59 58 58 59 59 59 58 57 56 56 56 57 58 57 57 58 56 56
60 60 61 62 63 64 64 63 63 63 62 62 63 63 63 62 63 63 63 63 64 63 63 64 64 64 64 64 64 64 64 64 64 64 64 64 63 63 63 63 63 63 63 63 63 62 62 61 61 60 60 60 60 59 59 58 58 58 57 56 56 56 56 57 57 58 58 57 57
61 61 62 64 64 64 64 63 63 63 63 63 63 64 63 62 63 63 63 64 63 63 63 63 63 63 63 63 64 64 64 64 64 63 63 63 63 63 63 63 63 63 63 63 63 62 62 61 61 60 60 60 60 59 59 58 58 57 57 57 56 56 56 56 57 57 58 57 57
62 63 64 65 65 64 64 63 63 63 63 63 64 64 64 63 63 63 63 63 63 63 63 63 63 63 63 63 63 63 63 64 63 63 63 63 63 63 63 63 63 63 63 63 62 62 61 61 61 61 60 60 60 60 59 59 58 58 57 57 57 56 56 56 56 57 58 58 58
63 64 65 65 65 64 63 62 62 62 63 63 63 63 63 63 63 63 63 63 62 62 63 63 63 63 63 63 63 64 64 64 63 63 63 63 63 63 63 63 63 63 63 63 62 62 62 62 61 61 60 60 60 60 60 59 59 58 58 57 57 56 56 56 56 57 57 58 57
64 64 64 64 63 62 61 61 61 61 62 62 62 63 63 63 63 62 62 62 62 62 63 63 63 63 63 63 63 63 64 64 63 63 63 63 63 63 63 63 63 63 63 63 63 63 62 62 62 62 61 60 60 60 60 59 59 58 58 57 57 56 56 56 56 57 57 57 57
63 63 62 61 61 60 60 60 60 60 61 61 61 62 62 62 62 62 62 62 62 62 63 63 63 63 63 63 63 63 63 64 63 63 63 63 63 63 63 63 63 63 63 63 63 63 63 63 62 62 62 61 60 60 60 60 59 59 58 58 57 57 57 57 57 56 57 57 57
62 62 61 60 60 59 59 59 59 60 60 60 60 61 62 61 61 62 62 62 62 62 63 63 63 63 63 63 63 63 64 64 63 63 63 63 63 63 63 63 63 63 63 63 62 62 62 62 62 62 62 61 61 60 60 60 60 59 59 58 58 57 57 57 57 57 57 57 57
61 60 60 59 59 59 59 59 59 59 60 60 60 60 61 61 61 61 61 62 62 62 63 62 63 63 63 62 63 63 63 63 63 63 63 63 63 63 63 63 63 63 63 62 62 62 62 62 62 62 62 61 61 60 60 60 60 60 59 59 58 57 57 56 56 57 57 56 57
60 60 59 59 59 58 58 58 58 58 59 59 60 60 60 60 61 60 60 61 62 62 62 62 63 63 63 63 63 63 63 63 63 63 63 63 64 64 64 64 64 64 64 63 63 62 62 62 62 62 62 61 61 61 60 60 60 60 60 59 58 58 57 57 57 57 57 57 56
59 60 60 59 58 58 57 57 57 58 58 59 59 60 60 60 60 60 61 61 62 62 62 63 63 63 63 63 63 63 62 63 63 64 64 64 64 64 64 65 64 64 64 64 64 63 63 63 62 62 62 61 61 61 60 60 60 60 60 60 59 58 58 57 57 57 57 57 57
59 59 60 59 59 58 57 57 57 57 58 58 59 59 60 60 60 60 61 62 62 62 63 63 63 63 64 64 64 63 63 63 63 63 63 63 63 64 64 64 64 64 64 64 64 64 63 63 63 62 62 61 61 61 61 60 60 60 60 59 59 58 58 58 57 57 57 57 57
59 59 60 60 59 58 57 57 57 57 57 57 58 58 59 60 60 61 61 61 62 62 63 63 63 63 63 64 64 64 64 63 63 63 63 63 63 63 63 63 63 64 64 64 63 63 63 63 63 63 62 62 61 61 61 60 60 60 59 59 59 58 58 58 58 57 57 57 57
59 59 60 60 60 58 57 57 57 56 56 56 57 57 58 59 60 61 62 61 62 62 62 62 62 62 63 63 63 63 63 63 64 64 63 63 63 63 63 63 63 63 63 63 63 63 63 63 63 63 63 62 62 61 61 60 60 60 60 59 59 58 58 58 58 58 57 57 57
58 59 59 60 59 57 56 56 56 56 56 56 56 56 57 58 59 60 61 62 61 61 61 61 61 61 62 62 62 62 63 63 63 63 63 63 63 63 63 63 63 63 63 63 63 63 63 63 63 63 63 62 62 61 61 60 60 60 60 59 59 58 58 58 58 58 58 58 58
58 58 58 59 58 57 56 56 56 56 56 56 56 56 56 57 58 60 60 62 61 61 61 62 61 61 61 61 61 61 61 61 62 62 62 63 63 63 63 63 63 63 63 63 62 61 61 61 62 62 62 62 62 61 61 61 60 60 60 59 59 58 58 58 58 58 58 58 57
59 59 59 59 59 58 57 57 57 56 56 56 56 56 56 57 58 59 60 61 61 61 61 61 61 61 61 61 61 61 61 61 61 61 61 62 62 62 62 63 63 63 63 62 56 53 52 55 58 61 62 62 62 61 61 61 60 60 59 58 57 56 55 55 53 52 51 51 49
60 59 59 59 59 59 59 59 58 57 56 56 56 56 56 56 57 59 60 61 61 61 61 61 60 60 59 60 60 60 60 59 59 59 59 60 60 61 62 62 62 63 61 56 51 48 48 49 51 54 58 62 60 59 58 58 57 57 56 55 53 52 51 49 48 47 46 46 45
59 59 59 59 59 59 59 59 59 58 57 56 56 56 56 57 58 59 60 61 61 60 60 60 60 57 56 59 58 57 56 56 56 55 55 56 56 57 57 58 59 57 54 48 47 46 47 47 47 49 53 58 57 56 54 54 53 52 52 51 50 49 47 46 45 45 44 44 44
59 59 59 59 59 59 59 59 59 59 59 58 58 58 58 59 59 60 60 60 60 60 59 59 58 58 57 57 56 55 54 53 53 52 52 52 52 52 53 53 53 51 47 44 44 44 44 45 46 46 48 51 53 53 51 51 50 50 49 48 47 47 46 45 45 44 43 43 43
59 59 59 59 59 59 59 59 59 59 59 60 60 60 60 60 60 60 59 59 58 58 57 57 56 56 56 55 54 53 52 51 51 51 50 50 49 49 49 49 49 46 43 42 43 43 44 44 44 45 45 47 50 51 51 50 49 48 48 47 47 46 45 45 44 44 43 43 42
58 58 58 59 59 59 59 60 60 60 60 60 60 60 59 59 58 58 57 57 56 56 56 55 55 54 53 53 52 51 51 50 50 49 48 47 47 47 47 47 47 46 44 42 43 43 43 43 43 43 44 45 47 49 49 48 48 47 47 47 46 45 45 44 44 43 43 42 42
58 58 59 59 59 59 59 59 59 59 59 59 58 57 56 56 56 55 55 55 54 53 53 53 52 52 51 51 50 50 49 49 48 47 47 46 45 45 45 46 46 44 43 42 42 42 43 43 42 42 43 43 46 47 48 47 47 47 46 46 45 45 44 44 43 43 42 42 42
58 59 58 58 58 58 58 58 58 57 57 56 55 55 54 53 53 53 53 52 52 52 51 51 51 50 50 49 49 48 48 47 47 46 46 45 44 44 44 44 44 43 42 41 42 42 42 42 42 42 42 42 44 46 47 46 46 46 45 45 45 44 44 44 43 43 42 42 42
57 58 57 57 57 57 56 56 56 55 55 54 53 53 52 52 52 52 51 51 51 51 51 50 49 49 49 48 48 47 47 47 46 45 44 44 44 43 43 42 42 41 40 40 41 41 41 41 41 41 41 42 43 45 45 45 45 44 44 44 44 44 44 43 43 42 42 42 42
56 56 56 56 56 55 55 55 54 53 53 52 52 51 51 51 51 50 50 50 50 49 49 49 48 48 48 48 47 47 47 46 46 45 45 44 43 43 42 42 42 40 39 39 40 40 40 40 40 40 40 41 42 43 43 43 42 42 42 42 42 42 42 42 42 42 42 42 41
55 55 55 55 54 54 53 53 52 52 51 51 51 50 50 49 49 49 48 48 48 48 48 47 47 47 47 46 46 46 45 45 45 45 44 44 43 42 42 41 41 40 38 39 39 39 39 39 39 39 40 40 41 42 41 41 40 40 40 40 40 41 41 41 41 41 41 40 40
54 54 54 53 53 52 52 51 51 51 50 50 49 49 49 48 48 48 47 47 47 47 47 46 46 45 45 45 45 44 44 44 44 44 44 43 42 42 42 41 41 39 38 38 38 39 39 39 38 39 39 40 40 40 39 38 38 38 38 38 38 38 38 39 39 39 39 39 39
52 53 53 52 51 51 51 51 50 50 49 49 48 48 48 47 47 47 47 46 46 46 45 45 45 44 44 44 43 43 43 43 43 43 42 42 42 41 41 41 40 39 38 38 38 38 38 38 38 38 39 39 39 39 38 38 37 36 36 35 35 36 36 36 37 37 37 38 37
52 52 52 51 51 51 50 50 49 49 48 48 48 48 47 47 47 46 46 45 45 44 44 43 43 43 43 43 42 42 42 42 42 41 41 41 40 40 40 40 40 39 38 38 38 38 38 38 38 38 38 39 39 38 38 37 36 35 34 33 33 33 33 34 34 34 34 35 34
51 51 51 51 50 50 49 49 48 48 48 47 47 47 47 46 46 45 45 44 44 43 43 42 42 42 42 42 42 41 41 41 40 40 40 40 39 39 39 39 39 38 38 38 38 38 38 38 38 38 38 38 39 38 37 36 35 34 33 33 32 32 32 33 33 33 33 33 33
51 51 51 50 50 49 48 48 48 47 47 47 46 46 46 45 45 44 44 44 43 43 42 42 41 41 41 40 40 40 40 40 40 39 39 38 38 38 38 38 38 38 38 37 37 38 38 38 38 38 38 38 38 38 37 36 34 33 33 32 32 31 31 31 31 31 31 31 31
51 51 50 50 49 49 48 47 47 47 47 46 46 45 45 45 44 44 44 43 42 42 42 41 40 40 39 39 38 38 38 38 38 38 38 37 38 38 38 38 38 38 37 37 37 37 37 38 38 38 38 38 38 38 37 35 34 33 32 32 32 31 30 29 29 29 29 30 30